GFSGBSN_sfc_wetblb_063.txt.gz
Wetbulb
57.53 56.70 56.84 57.86 57.62 56.53 56.84 56.84 56.63 57.38 57.81 58.86 57.95 58.63 59.48 59.41 59.54 59.84 60.16 60.37 60.46 60.63 60.64 60.66 60.62 60.78 55.52 50.66 49.46 57.43 69.28 69.70 64.29 59.50 57.47 57.29 54.82 54.70 52.49 51.74 52.33 51.28 51.13 50.72 50.94 50.82 50.03
57.61 57.81 56.36 56.66 57.28 57.47 57.15 56.56 56.39 57.33 57.74 58.18 58.07 58.07 58.69 58.85 59.16 59.41 59.64 59.92 60.18 60.33 60.21 60.15 60.21 60.34 52.46 44.11 56.22 54.58 56.26 58.17 57.64 57.81 56.65 57.33 55.25 55.22 52.34 51.56 51.77 50.59 50.15 49.61 50.36 50.18 50.08
57.67 56.90 57.39 56.89 57.48 57.67 57.16 56.93 56.60 56.56 57.48 57.57 58.12 57.79 58.47 58.41 58.66 58.82 59.25 59.53 59.85 59.85 59.79 59.81 59.90 57.86 51.88 48.11 58.28 53.94 52.18 52.74 56.21 57.80 55.36 56.93 57.63 54.20 54.45 50.51 51.95 49.78 48.26 48.28 48.61 49.22 48.64
57.23 56.84 56.89 57.19 57.11 56.66 57.20 56.98 56.90 56.50 56.98 57.30 57.42 57.76 57.41 57.71 58.15 58.31 58.56 58.91 59.03 59.40 59.48 59.66 59.92 56.18 45.77 56.61 57.92 55.24 52.50 53.44 57.84 59.08 58.04 58.13 58.56 55.42 52.89 51.91 47.78 46.47 46.10 45.59 46.45 48.20 47.96
56.89 57.34 57.24 57.05 58.35 57.81 57.20 57.00 57.05 56.13 56.44 56.99 57.04 56.97 57.62 56.95 58.02 57.31 57.63 58.14 59.06 59.31 59.36 59.37 55.67 52.01 47.02 58.00 50.53 51.67 53.01 52.01 54.24 56.28 57.26 57.98 56.65 52.03 51.53 46.11 44.71 43.46 43.39 42.17 44.86 47.43 47.41
56.89 57.15 57.74 58.35 57.66 56.94 56.90 56.78 56.65 56.59 56.22 56.74 56.72 56.32 55.99 56.44 56.64 56.98 58.11 58.50 58.39 57.99 56.48 57.32 55.35 47.85 49.89 47.36 50.59 51.49 53.89 53.04 51.84 54.18 53.07 51.96 49.91 46.52 44.82 45.45 41.80 42.53 40.71 40.42 41.74 44.71 45.95
57.47 57.31 57.57 57.82 56.42 56.98 56.30 56.61 56.20 55.91 55.88 56.15 56.28 56.59 56.18 56.13 56.44 56.79 55.41 49.22 44.98 46.60 50.11 44.76 47.74 48.18 48.38 51.04 53.01 51.25 54.02 52.03 51.80 49.85 45.79 47.88 45.16 42.98 45.49 46.26 44.31 43.40 41.66 41.17 42.37 44.62 44.79
57.39 57.44 57.75 57.25 57.24 56.37 56.08 56.06 55.32 55.32 55.61 55.31 55.97 56.45 56.79 56.80 56.51 57.13 52.72 45.23 46.43 49.46 43.96 49.22 48.99 49.79 52.17 52.25 48.35 50.07 53.15 47.99 47.98 43.62 46.33 45.04 42.14 45.73 47.43 46.16 45.43 43.51 41.37 41.12 42.96 45.06 44.59
56.71 57.33 57.37 56.68 56.41 55.71 55.70 55.25 55.32 55.28 55.54 55.30 55.80 56.43 56.84 56.67 56.54 54.35 49.90 47.32 52.71 50.29 43.97 46.39 49.18 48.95 49.43 51.88 48.21 47.97 50.93 48.06 45.11 44.29 44.15 41.39 44.69 45.69 45.45 43.57 42.56 42.70 40.95 40.65 41.22 42.96 43.00
56.44 56.92 57.34 56.76 55.71 55.02 54.92 55.28 55.15 55.57 55.04 56.01 56.58 57.29 57.28 57.65 52.25 49.44 47.97 52.12 52.71 50.43 38.03 41.45 45.97 49.08 50.78 51.71 47.23 51.47 51.86 49.27 46.56 42.67 43.26 43.91 46.17 44.74 43.86 42.74 43.26 40.08 44.14 43.53 42.15 40.48 37.07
56.06 56.88 56.92 56.31 55.16 54.47 54.39 55.10 55.74 55.61 55.46 56.49 57.41 57.36 57.74 57.20 48.48 50.48 53.27 52.67 52.96 49.25 28.98 43.32 46.26 52.48 50.89 47.41 48.03 48.16 51.01 49.75 44.65 43.72 44.01 41.99 43.42 43.35 43.14 42.98 44.55 41.75 43.99 42.00 40.43 37.99 37.70
56.60 56.56 56.56 55.94 55.00 54.19 54.19 55.01 55.63 57.02 57.04 56.92 57.42 57.36 57.36 55.52 53.86 52.67 53.04 51.21 50.44 37.92 30.28 41.37 46.48 45.12 45.28 46.74 47.07 48.34 47.77 47.82 47.69 43.62 44.14 43.33 46.13 44.66 44.04 43.33 43.96 43.26 40.13 38.51 37.79 36.39 32.21
56.61 56.53 56.15 55.55 54.86 54.07 54.07 54.66 55.83 56.93 57.35 57.39 57.44 57.44 56.46 54.09 49.65 51.61 50.61 47.83 37.56 33.27 42.07 39.11 41.40 43.71 43.21 43.53 44.24 44.27 41.30 39.06 39.42 36.91 38.42 40.52 41.47 43.38 44.73 41.71 43.63 41.21 38.87 33.67 31.58 31.46 30.92
56.57 56.52 56.51 56.13 55.50 54.39 54.35 54.31 56.30 57.24 57.29 57.43 56.61 56.53 55.16 55.17 52.44 52.43 48.25 42.51 32.44 38.59 39.05 43.78 42.83 42.68 40.21 43.24 42.11 42.62 41.08 37.18 38.37 38.20 35.56 34.89 34.52 40.61 41.85 41.56 39.97 38.65 39.07 33.57 28.96 29.16 31.42
56.38 56.31 56.63 56.55 55.63 55.40 54.37 54.97 56.78 57.17 57.37 56.48 54.96 49.78 50.05 49.85 51.12 50.02 44.47 34.32 35.32 38.75 41.49 42.38 42.18 38.72 39.21 41.47 41.29 40.09 38.14 37.24 37.12 37.76 36.41 34.96 35.69 40.11 39.99 41.30 41.59 38.07 36.36 37.62 31.69 29.50 29.53
56.39 56.20 56.33 56.84 55.71 55.29 55.17 55.70 56.62 57.37 57.11 54.98 46.54 43.96 45.64 46.92 49.73 46.18 40.28 38.18 37.89 41.02 42.70 43.05 37.43 39.70 36.86 38.53 38.55 38.65 37.57 38.58 37.74 38.10 38.80 36.51 33.15 37.01 39.34 41.12 39.84 40.14 39.13 34.41 32.84 28.89 26.89
56.33 56.28 56.05 56.60 56.18 55.26 54.94 55.11 56.40 57.57 56.66 52.47 42.77 42.24 46.26 45.05 46.63 42.35 35.42 35.99 39.98 42.56 42.84 41.50 39.82 38.78 38.67 38.03 37.90 37.06 36.68 38.25 39.29 38.03 38.04 36.03 35.59 34.46 37.75 36.91 36.11 36.33 34.92 32.74 33.64 31.36 30.13
56.68 56.45 56.05 56.04 56.65 55.51 54.70 54.89 56.00 57.51 55.25 47.31 41.42 39.18 44.92 46.00 40.20 34.53 36.40 38.77 42.79 40.90 42.03 41.27 40.99 40.34 39.20 37.77 36.71 36.14 36.55 37.36 38.52 38.54 35.53 35.70 33.56 31.23 33.85 36.02 37.94 37.47 35.43 34.64 32.60 29.38 27.73
57.13 56.37 55.95 55.77 56.45 55.61 54.49 54.50 55.85 56.28 52.02 43.11 40.46 39.56 43.46 45.72 35.79 35.11 36.86 38.82 39.55 39.94 38.51 39.58 38.72 39.67 38.99 36.52 34.97 36.56 36.65 38.88 39.25 38.04 35.89 35.94 31.74 29.14 31.88 34.97 36.75 34.71 34.62 32.70 31.57 31.13 28.12
57.15 56.55 56.27 55.40 56.04 55.64 54.80 54.11 55.38 56.06 53.63 42.83 37.96 35.97 38.88 39.05 36.55 37.48 35.81 36.29 36.50 39.12 38.64 38.35 37.43 38.36 37.09 34.96 36.66 34.90 34.68 37.92 39.09 39.73 43.02 38.35 30.79 31.16 30.05 33.02 34.63 33.01 32.84 33.31 33.10 29.99 29.83
57.66 56.72 56.49 55.62 55.14 56.02 54.94 54.00 55.03 55.94 53.78 43.19 36.90 35.87 35.62 34.82 37.51 35.82 36.64 36.84 35.43 35.59 37.32 37.00 35.85 36.72 36.05 32.81 33.53 33.98 35.43 34.97 37.66 40.99 36.32 34.56 30.69 31.45 32.24 33.11 33.74 33.55 33.68 31.88 31.32 31.85 31.89
57.33 56.93 56.43 56.03 54.96 56.08 54.91 54.20 54.89 55.34 53.43 43.32 37.79 36.64 33.63 32.62 34.41 35.19 36.03 35.31 36.14 34.51 35.58 35.03 34.56 35.44 34.26 33.70 34.68 33.79 34.89 33.77 34.10 35.91 34.01 33.69 30.75 32.37 31.33 33.12 32.69 31.87 33.56 32.97 32.07 32.31 31.36
57.71 57.31 56.94 56.29 54.95 55.81 55.23 54.16 53.94 54.68 49.96 41.82 37.88 37.52 38.45 34.23 32.55 33.92 34.55 35.98 37.16 36.00 35.03 36.34 35.92 34.44 33.92 34.78 35.74 35.29 35.24 34.89 35.97 34.66 32.88 32.84 31.21 30.79 30.72 29.62 30.90 30.41 32.49 32.55 33.71 33.64 33.85
57.62 57.57 56.94 56.55 55.37 55.39 55.63 54.27 53.69 54.27 49.40 42.40 39.30 39.23 37.18 34.17 32.96 34.75 35.88 36.68 35.38 34.92 34.77 35.61 35.72 34.76 35.26 36.86 36.47 36.96 35.76 34.93 34.85 32.91 34.15 31.76 30.70 29.79 28.91 29.12 25.08 33.43 35.62 35.79 34.25 34.85 34.75
53.72 57.44 57.08 56.95 56.08 55.81 56.00 53.85 54.52 53.84 53.46 43.68 41.60 41.18 38.58 35.64 34.88 35.54 36.15 35.03 35.09 34.40 34.29 35.05 35.43 35.41 36.20 36.29 33.31 32.13 32.17 33.14 32.47 31.92 31.82 32.79 30.63 26.50 27.11 25.05 28.59 30.66 32.88 33.57 33.29 33.48 36.40
53.13 57.13 57.52 57.10 56.23 56.00 55.67 54.42 53.79 54.87 52.90 44.75 42.71 43.85 42.14 38.39 37.36 37.59 35.91 35.49 33.99 32.63 33.33 34.44 36.65 37.33 38.06 34.56 33.41 29.24 29.54 30.93 30.03 30.59 33.17 31.45 30.41 29.69 25.15 21.85 21.08 30.66 34.41 37.09 37.06 30.23 36.00
52.73 54.37 57.09 57.16 56.60 56.17 55.41 55.01 53.68 53.95 53.03 45.56 43.49 44.55 42.52 38.87 36.32 36.20 35.23 35.22 35.89 33.93 31.83 32.95 34.46 34.91 36.10 32.05 30.80 29.57 29.96 32.74 29.37 28.89 27.89 27.18 26.14 25.94 25.75 24.10 27.64 32.72 35.75 37.32 29.91 32.19 36.85
51.93 52.64 54.01 56.95 56.70 56.39 55.15 54.90 53.88 53.45 53.82 45.92 42.39 44.14 43.06 36.28 35.96 38.58 39.03 35.38 35.51 35.08 33.15 33.52 34.25 33.80 32.13 30.77 30.53 29.98 28.36 30.92 29.11 29.83 28.86 28.24 25.31 24.41 24.32 23.57 23.39 35.36 35.06 33.16 35.92 36.63 36.73
52.04 51.24 53.41 56.78 56.54 56.34 55.22 54.89 53.90 53.44 52.82 47.97 42.00 43.62 41.44 38.71 36.93 39.09 39.40 39.56 38.98 38.18 35.23 32.52 35.95 33.03 35.10 31.32 30.19 28.84 29.34 28.44 28.95 26.60 30.28 28.21 30.86 28.98 28.80 29.49 34.34 35.85 36.47 37.27 36.94 36.37 36.54

GFSGBSN_sfc_wetblb_069.txt.gz
Wetbulb
57.20 57.91 57.74 57.24 57.17 56.88 57.42 57.67 57.85 57.24 57.14 57.79 58.32 58.66 58.76 59.15 59.60 59.77 60.00 60.15 60.38 60.56 60.60 60.75 60.68 60.66 58.37 52.27 51.67 58.25 66.00 68.46 65.70 62.36 59.67 59.85 60.56 59.16 56.54 58.01 59.32 56.84 58.28 57.31 57.95 56.84 57.20
57.76 57.75 57.13 57.33 57.02 57.41 57.83 57.60 57.57 57.60 56.72 57.21 58.07 58.09 58.76 58.78 58.98 59.22 59.47 59.85 60.19 60.33 60.10 60.40 60.46 59.89 55.73 47.78 57.28 57.89 58.45 63.38 63.73 61.09 59.69 60.49 61.92 62.65 58.16 56.47 55.64 57.00 57.14 55.85 55.72 55.71 56.04
57.23 57.50 58.08 57.47 57.67 57.33 57.11 57.30 57.48 57.86 57.22 56.80 57.67 57.94 58.49 58.43 58.28 58.56 58.98 59.19 59.42 59.27 59.27 59.98 60.26 58.61 53.57 51.55 57.99 60.34 59.21 57.02 61.42 61.18 59.18 61.36 63.81 60.59 60.19 55.89 56.33 55.66 53.33 54.21 54.75 55.22 54.69
57.86 57.74 58.03 57.86 57.64 58.05 58.16 58.10 57.47 56.94 57.05 56.62 57.09 57.84 57.73 57.92 57.67 57.85 58.40 58.31 58.46 58.83 59.25 59.84 60.02 57.35 50.61 58.24 58.79 57.17 58.28 57.88 57.60 59.57 61.04 62.06 62.16 62.11 58.43 57.17 54.41 53.20 54.47 50.35 53.28 53.14 53.51
58.69 58.13 57.80 57.67 58.15 58.95 57.44 57.15 57.57 57.25 56.54 56.74 56.75 57.27 57.22 56.85 57.28 57.15 57.61 57.82 58.18 58.93 59.65 59.60 57.02 54.85 49.09 60.21 54.66 56.63 58.72 54.82 57.30 59.01 60.55 61.58 61.32 58.58 57.01 53.78 52.02 51.82 50.52 51.23 52.71 53.88 53.29
58.45 58.37 58.27 58.51 58.48 57.51 56.91 56.82 56.78 57.03 56.63 56.70 56.48 56.77 56.75 56.54 56.29 56.91 57.36 57.75 58.93 58.65 58.58 57.89 56.42 50.76 53.16 51.86 56.26 57.18 58.82 56.29 56.49 57.29 56.44 57.58 58.13 55.36 54.88 53.03 47.53 50.22 50.25 52.30 51.40 54.55 51.18
58.11 57.77 58.07 58.45 57.98 56.73 56.85 56.78 56.70 56.15 56.13 56.56 56.02 56.40 56.74 56.74 56.69 57.06 56.70 57.63 52.98 51.62 52.83 49.73 50.40 49.92 52.79 56.28 55.75 53.70 55.61 55.53 56.24 55.50 52.25 55.05 53.22 51.25 54.49 55.20 54.87 53.55 52.59 51.07 51.68 48.68 47.92
57.67 57.48 57.77 58.33 57.59 56.90 56.67 56.26 56.01 55.63 55.69 56.02 55.55 55.77 56.62 56.66 57.03 56.79 56.31 52.91 52.23 53.78 47.84 54.16 51.73 51.35 53.81 54.53 50.98 52.64 56.19 52.21 52.47 50.02 54.64 51.43 50.21 55.72 57.31 56.31 54.26 52.37 51.16 50.89 51.22 48.43 47.73
57.95 57.80 57.87 58.07 57.66 56.65 56.39 55.78 55.69 55.84 55.50 55.76 55.59 55.30 56.20 56.89 56.33 55.76 55.07 54.00 57.15 56.49 48.90 50.91 53.26 51.84 52.54 53.77 50.79 50.90 54.02 52.76 50.61 50.22 53.00 50.73 52.78 54.33 55.60 51.11 49.89 50.93 50.00 49.19 47.77 48.41 48.78
57.98 58.05 57.97 57.68 57.16 56.40 55.78 55.26 55.42 55.61 55.35 55.51 56.05 55.81 56.36 56.83 53.81 56.35 54.28 56.85 58.84 57.89 45.28 45.82 49.07 51.50 53.31 54.48 49.28 54.56 55.30 52.60 50.32 49.24 52.06 53.23 51.71 50.65 51.03 51.79 51.92 49.43 51.76 48.82 47.51 44.51 40.83
57.88 57.95 58.12 57.68 56.83 56.03 55.46 54.77 55.22 55.79 55.45 55.78 55.93 56.47 56.37 56.35 56.41 55.08 57.29 58.94 58.01 54.63 34.48 46.88 48.96 55.51 54.20 51.57 50.86 50.89 55.07 53.39 48.45 49.49 51.19 47.86 47.62 48.74 49.14 49.46 52.14 49.50 49.54 48.05 47.40 45.56 44.53
57.90 57.53 57.77 57.48 57.52 56.67 55.13 55.15 54.88 55.78 55.87 55.87 56.35 56.87 56.21 56.67 56.52 56.13 57.78 56.38 55.16 43.72 34.48 44.56 48.94 48.48 48.96 50.56 49.99 51.70 51.77 54.31 53.94 49.40 50.03 48.97 51.89 50.39 49.51 49.08 49.61 50.21 48.14 47.59 47.09 45.37 39.10
57.60 57.55 57.34 57.27 57.33 57.28 56.21 54.84 55.50 55.70 56.47 56.53 57.48 57.27 56.26 58.08 56.75 57.92 56.44 54.37 44.06 38.14 46.14 42.93 44.27 47.65 48.02 46.61 47.25 48.52 47.50 47.80 46.35 43.75 44.96 46.99 47.20 48.56 50.27 46.96 48.79 48.17 46.05 40.48 39.37 39.04 38.24
57.83 57.57 57.04 57.02 56.87 57.53 56.79 56.19 55.27 55.50 56.68 57.87 57.40 57.32 57.30 57.15 59.08 58.16 54.54 48.63 38.13 43.99 42.30 47.49 46.05 46.18 44.52 46.29 46.96 46.79 46.52 45.10 47.25 46.77 46.01 43.15 40.00 46.70 48.07 47.58 46.12 45.99 45.96 40.80 34.70 36.81 40.32
57.97 57.66 57.19 57.04 56.75 56.77 57.04 56.30 56.14 55.73 57.31 57.31 56.60 56.95 56.41 57.37 58.92 57.54 51.53 43.43 42.38 43.87 46.10 45.61 44.80 42.61 42.96 44.71 46.31 46.13 45.88 45.62 45.42 46.10 44.50 44.70 41.23 45.68 46.37 47.83 47.49 45.37 41.85 46.12 41.91 42.34 38.70
58.73 57.95 57.52 56.92 57.09 56.46 56.67 56.58 55.96 56.49 57.59 56.47 55.59 53.82 53.73 58.16 58.12 54.90 48.77 44.53 45.78 46.69 45.76 45.93 41.92 44.13 41.00 44.13 43.68 44.08 44.58 45.15 44.36 44.62 46.64 45.42 40.33 44.40 44.47 47.05 46.88 46.17 46.94 41.02 42.19 35.18 34.91
59.79 58.72 57.91 57.24 57.31 56.61 56.47 56.54 55.87 56.29 57.63 56.03 53.91 49.55 54.32 56.36 57.36 51.45 44.58 46.13 46.62 47.93 47.01 45.40 45.04 44.50 44.53 42.53 44.10 43.15 44.09 44.57 44.86 44.59 46.00 45.97 44.47 40.85 44.06 43.93 44.34 43.56 43.13 43.26 43.14 41.62 36.62
60.08 59.27 58.43 57.87 57.29 56.17 55.94 56.32 55.57 56.03 56.27 52.24 52.32 45.76 53.53 56.03 48.61 50.09 46.20 47.16 44.61 47.32 48.46 47.10 47.33 47.14 45.80 44.72 44.72 44.89 43.45 44.92 44.52 44.83 44.01 45.00 45.23 40.42 41.48 42.77 44.02 44.87 44.55 44.79 39.92 38.49 40.00
57.87 60.06 58.62 58.14 57.28 56.03 55.84 56.01 55.46 55.21 54.06 53.57 48.89 49.92 53.58 54.36 45.38 47.88 49.22 46.44 46.70 46.12 46.39 45.76 45.25 46.45 46.81 45.78 43.45 44.84 44.08 43.42 44.65 44.26 43.67 45.05 42.78 37.91 37.85 40.69 42.19 41.11 43.38 43.73 43.05 42.31 38.42
55.51 58.46 59.22 58.24 57.34 56.35 55.41 56.00 55.83 54.99 55.60 53.82 50.28 45.59 49.17 50.63 51.21 47.87 46.81 46.48 45.18 45.89 45.90 45.08 45.07 45.41 44.86 44.36 45.55 43.29 42.57 42.82 44.29 45.53 43.37 45.44 42.77 41.18 38.70 40.26 43.01 39.53 41.06 42.04 41.72 38.91 39.97
55.32 55.78 55.83 58.66 57.65 56.45 55.66 55.63 55.71 55.07 55.61 53.47 49.56 47.42 48.42 45.51 46.92 47.85 47.76 46.84 44.90 43.84 45.47 45.20 44.33 44.24 44.29 42.34 43.49 43.04 43.53 42.03 43.91 44.24 43.90 44.43 40.28 40.18 40.07 40.20 40.52 40.65 40.70 40.71 39.83 41.49 38.90
55.92 55.32 55.08 56.25 58.44 57.18 55.91 55.34 55.20 54.72 54.95 52.16 47.86 47.27 48.47 47.02 46.98 47.03 45.55 45.09 44.91 45.61 44.90 43.77 42.86 44.20 44.23 42.80 43.77 42.88 43.94 43.54 42.35 43.08 42.69 43.01 40.33 40.35 39.07 40.16 40.05 38.90 41.17 41.15 41.10 41.10 40.94
55.05 55.50 55.91 54.37 56.97 57.67 56.61 54.91 55.35 54.16 53.44 50.77 51.99 53.02 48.31 45.93 45.94 44.96 45.95 45.81 45.83 46.67 43.62 43.96 44.09 43.72 42.74 42.61 44.81 45.95 46.24 45.60 45.01 43.24 42.07 41.59 41.71 40.13 38.62 40.19 40.41 38.36 41.89 42.49 42.47 42.86 41.97
54.04 54.98 55.24 55.13 54.69 57.39 57.10 55.64 55.90 54.09 53.15 54.19 52.86 50.64 48.24 43.77 45.54 45.39 45.50 45.44 45.59 45.48 43.58 43.28 43.90 43.80 44.00 47.85 47.88 47.29 46.13 45.26 44.85 43.66 45.01 41.79 42.05 42.17 40.06 39.75 32.62 39.54 42.85 43.12 42.45 42.38 43.87
53.15 53.60 54.69 55.09 54.89 55.78 56.46 56.54 56.59 55.09 53.82 52.68 54.47 49.59 48.01 44.65 47.37 46.38 45.05 44.79 44.33 43.56 42.97 43.05 43.09 45.41 48.00 45.35 43.16 40.84 41.51 41.60 41.03 41.72 42.37 44.22 43.53 40.41 37.62 37.11 40.02 38.86 39.29 39.97 39.28 39.77 44.27
52.88 52.96 53.23 54.55 55.08 54.72 55.50 55.83 56.01 55.74 54.01 53.39 52.82 54.78 48.97 46.33 46.06 47.88 45.45 45.27 44.51 44.05 42.33 41.64 43.86 47.96 46.31 45.16 43.84 39.67 39.33 41.85 38.86 38.70 41.47 41.73 43.29 41.22 37.88 36.11 32.15 38.64 41.44 43.48 43.28 36.70 43.99
52.58 52.75 52.91 53.70 54.84 53.84 54.70 55.49 55.87 55.50 54.05 53.31 52.50 55.26 50.74 46.17 49.50 46.32 45.07 44.00 46.63 45.74 44.55 42.22 42.01 42.01 44.96 43.61 41.36 41.35 41.14 43.06 39.08 38.29 36.92 38.51 39.38 37.27 37.62 35.58 38.65 42.16 42.76 44.41 35.09 38.58 44.77
52.73 52.54 52.96 53.53 54.41 53.84 52.76 53.23 54.53 55.40 54.71 53.34 51.84 54.96 50.62 47.74 49.12 45.65 46.04 44.76 45.12 46.08 43.47 43.92 42.23 42.58 42.31 41.12 42.69 43.51 42.30 43.11 41.21 41.87 39.43 38.91 37.71 36.38 38.04 35.11 33.08 43.84 42.06 38.89 43.66 44.73 45.31
52.76 53.12 53.31 53.43 53.69 53.31 52.88 53.10 52.45 53.89 54.99 53.87 49.84 53.13 52.81 48.05 47.34 46.73 46.54 46.56 45.51 45.89 46.66 45.27 46.32 45.02 46.63 44.69 45.34 46.01 42.48 42.91 42.18 38.32 41.96 37.30 41.17 40.85 40.48 40.81 43.60 45.01 44.81 45.57 45.66 44.68 45.02

GFSGBSN_sfc_wetblb_072.txt.gz
Wetbulb
58.52 58.40 58.03 57.57 57.54 57.28 57.96 58.19 58.13 57.93 57.59 57.12 57.87 58.63 58.54 59.10 59.23 59.72 59.86 60.01 60.29 60.55 60.58 60.46 60.54 60.76 57.44 50.66 50.90 58.19 66.47 66.08 65.28 62.10 55.96 57.59 57.14 58.13 55.48 57.07 58.60 56.70 58.13 59.00 58.62 57.98 57.78
57.46 57.61 58.23 57.66 57.51 57.50 57.55 57.77 57.83 57.86 58.11 57.06 57.36 58.20 58.37 59.08 58.94 59.22 59.33 59.54 59.81 59.92 59.78 59.84 60.24 60.21 54.09 45.76 57.92 58.42 57.10 57.63 62.90 59.96 57.57 59.27 58.41 61.43 58.82 57.68 56.55 56.85 58.38 57.53 56.49 57.37 56.88
57.95 57.79 57.97 57.85 57.92 58.01 57.59 58.24 58.33 58.09 57.52 57.59 57.08 57.77 58.25 58.48 58.40 58.41 58.54 58.86 59.12 59.05 59.23 59.58 59.95 58.27 52.12 49.84 58.18 58.58 58.18 57.66 58.31 61.90 58.27 60.18 60.65 61.07 60.77 56.67 57.59 56.56 54.06 54.65 55.18 55.87 54.19
59.00 58.70 58.67 58.18 58.17 58.60 59.30 57.90 58.22 58.26 57.30 57.16 57.05 57.47 57.91 58.03 58.11 57.89 57.73 58.07 58.51 58.74 58.95 59.56 60.14 56.26 48.40 57.71 59.07 57.44 57.36 56.19 57.69 59.35 61.00 61.69 61.93 61.40 60.26 57.77 55.29 53.26 54.30 48.70 53.20 54.09 53.35
58.82 58.70 58.69 58.84 58.89 58.92 58.14 57.28 57.86 58.07 57.46 56.97 57.28 57.10 57.45 56.86 56.69 56.76 57.14 57.69 58.21 58.83 59.33 59.76 55.81 53.59 48.10 59.77 54.85 56.60 56.20 53.99 56.82 56.21 58.68 60.74 61.34 58.38 59.22 52.87 50.12 51.32 46.60 49.24 50.28 55.47 53.15
58.81 58.49 58.54 58.52 58.90 58.12 57.08 57.16 57.00 57.13 56.73 56.77 56.56 56.71 57.11 57.16 57.41 57.15 57.90 57.70 58.65 58.76 58.19 58.07 56.01 49.19 51.94 51.91 55.46 55.39 55.78 56.31 54.48 55.27 55.98 56.61 56.24 53.91 53.62 51.05 44.57 47.37 47.25 49.89 50.05 54.21 53.59
58.67 58.36 58.42 58.72 58.77 58.06 57.38 57.23 56.71 56.41 56.19 56.38 56.59 56.35 57.08 56.72 57.24 57.17 55.90 55.95 52.76 51.68 52.27 48.88 50.05 48.93 50.78 54.76 56.65 54.28 56.61 55.27 54.66 54.34 49.81 53.52 50.35 48.67 50.48 52.95 53.64 52.73 50.76 49.46 49.44 51.47 51.69
58.34 58.44 58.49 58.65 58.56 57.72 57.09 56.88 56.38 55.97 55.69 56.03 56.49 56.18 56.88 57.01 57.41 56.99 54.79 52.81 51.71 53.11 46.45 53.07 53.09 52.41 52.95 53.53 49.19 52.29 55.15 50.04 51.54 48.15 51.78 50.20 47.89 53.51 55.17 54.10 52.96 52.60 50.62 49.63 50.15 48.82 48.13
58.40 58.22 58.45 58.55 58.02 57.65 56.89 56.28 55.94 55.87 55.88 55.67 56.29 56.12 56.74 57.38 57.61 55.46 53.89 53.91 57.68 57.16 47.81 51.28 53.55 52.45 52.61 53.44 49.92 50.25 53.16 51.84 49.76 48.23 49.56 48.28 51.09 54.90 53.88 53.36 51.77 51.42 48.93 49.30 47.94 47.79 49.93
58.18 57.75 58.32 57.97 58.12 57.47 56.57 55.73 55.37 55.61 55.89 55.47 56.22 56.85 56.80 57.43 53.94 56.99 54.38 58.35 58.65 57.36 43.71 45.79 48.65 51.22 52.47 53.75 49.38 54.24 54.41 52.74 50.08 47.71 50.26 50.42 52.86 52.38 53.57 51.25 51.64 47.25 52.18 51.46 49.65 45.06 40.94
58.23 58.03 57.84 57.66 57.74 57.69 56.35 55.66 55.56 55.43 56.09 55.70 56.24 56.47 57.26 56.40 53.58 53.92 55.68 57.89 57.03 54.50 32.66 47.43 48.76 55.14 53.84 50.81 50.60 50.06 55.96 53.07 47.52 48.92 51.05 49.27 48.79 50.08 49.63 50.81 52.93 48.40 50.75 49.34 49.16 44.30 41.67
58.11 58.03 57.59 57.44 57.25 57.90 57.08 55.39 55.18 55.62 56.14 56.68 56.07 56.75 57.03 55.45 55.50 56.19 58.41 56.78 53.83 43.41 33.35 44.52 48.79 48.06 47.83 50.09 49.65 51.00 50.48 54.12 53.59 49.26 49.61 48.93 52.00 51.71 51.30 49.50 49.71 49.99 47.65 46.80 45.76 42.09 34.40
58.45 58.09 57.75 57.18 57.02 57.48 57.23 56.64 55.58 55.57 55.97 56.88 57.11 57.39 56.14 56.73 54.51 58.57 57.70 52.80 42.33 36.24 46.95 42.92 44.45 47.64 47.73 46.91 47.33 46.74 46.57 46.10 44.63 42.40 42.78 46.00 46.73 49.37 50.95 46.73 49.50 47.93 43.27 36.44 34.44 33.42 33.54
58.79 58.34 58.03 57.38 57.03 56.76 57.14 56.76 56.20 55.60 55.66 57.05 57.40 57.34 56.50 56.34 57.66 57.63 54.72 47.37 37.18 42.75 43.23 46.62 46.30 46.25 43.98 46.53 46.67 46.37 45.04 43.79 47.64 45.81 44.61 40.90 37.89 45.82 49.65 47.29 44.47 44.33 43.07 36.77 30.96 32.48 35.41
59.30 58.72 58.45 57.66 57.27 56.69 56.46 56.75 56.09 56.28 56.74 57.16 56.51 54.88 54.12 56.76 58.52 57.21 50.09 42.08 41.32 43.27 46.43 45.06 44.35 41.80 42.26 45.77 45.71 45.74 44.93 44.95 44.73 44.64 40.63 41.60 39.65 45.72 46.86 47.97 46.19 44.01 39.41 44.45 38.46 38.21 33.52
60.05 59.44 58.87 58.19 57.69 56.62 56.24 56.70 55.91 56.07 57.54 56.52 53.62 53.74 53.75 57.93 58.25 54.40 46.99 43.17 45.40 47.28 46.99 47.45 40.04 42.60 38.43 42.78 43.40 44.21 44.26 45.42 45.37 45.33 45.47 43.84 37.45 44.85 44.90 47.08 47.02 44.86 45.57 38.23 38.17 30.85 29.12
60.69 60.04 59.07 58.65 57.84 56.65 56.19 56.48 55.83 56.14 57.40 55.79 52.28 48.55 54.49 57.91 56.51 50.33 42.57 44.69 46.56 48.81 47.69 45.29 44.52 42.96 43.85 44.25 44.04 43.41 44.04 44.62 45.49 46.00 46.51 44.75 42.48 39.93 43.85 42.36 42.30 41.54 40.51 40.84 39.62 37.91 30.97
56.48 59.08 59.76 58.71 57.72 56.54 55.92 56.04 55.58 55.53 56.08 53.03 50.42 44.47 54.05 56.19 46.76 48.41 45.81 46.80 45.46 47.76 49.01 46.73 47.07 46.92 45.70 43.90 41.65 42.71 43.87 44.20 45.21 45.08 43.75 44.75 41.95 37.55 39.48 42.19 43.84 43.15 42.13 41.93 34.98 33.68 35.35
55.25 56.36 59.60 58.91 57.93 56.65 55.77 55.62 55.64 54.83 53.96 54.26 47.93 48.05 54.00 53.19 41.91 45.54 49.23 47.88 47.48 46.42 47.24 46.53 45.97 47.91 47.43 45.41 42.59 45.27 44.78 44.76 45.86 45.19 42.23 42.75 40.19 34.18 35.03 38.28 40.52 39.20 42.08 42.62 40.72 38.30 33.52
55.03 55.40 55.46 58.09 57.96 56.81 55.60 55.52 55.87 54.97 55.50 53.98 48.12 43.89 48.09 48.87 48.26 44.92 45.14 46.23 46.26 47.85 45.82 46.25 45.27 46.19 45.28 43.96 46.24 44.14 43.32 44.21 45.77 46.04 45.12 43.42 41.29 38.21 33.88 37.34 40.37 37.15 39.83 40.55 38.59 32.22 33.78
54.64 54.95 55.29 55.23 57.18 57.41 56.06 55.33 55.55 54.82 55.58 53.58 47.70 44.28 48.29 42.99 44.99 45.48 46.25 46.59 44.92 44.65 45.79 45.97 44.55 44.26 43.66 41.79 43.40 42.88 43.43 42.31 44.72 44.73 44.16 42.09 38.31 38.74 38.74 39.68 39.68 39.33 39.82 39.31 37.14 37.49 33.01
54.85 54.58 54.60 55.09 55.47 57.90 56.85 55.11 55.16 54.61 55.03 50.85 45.31 46.31 47.62 44.94 46.72 44.62 44.72 44.74 44.81 45.92 45.53 44.80 42.59 45.10 43.84 42.10 41.36 41.03 43.71 42.74 42.22 42.65 41.56 41.96 37.79 38.38 36.99 39.76 39.47 37.99 39.78 39.49 39.57 39.32 38.27
54.03 55.10 55.15 54.71 55.27 55.34 57.31 55.49 55.34 53.99 53.88 50.26 50.80 50.83 47.27 44.83 44.81 43.53 43.30 44.64 45.86 46.96 45.34 45.10 43.92 43.94 42.75 42.96 44.65 44.57 44.55 44.00 43.57 41.49 40.00 39.60 38.41 36.65 34.00 39.68 39.29 35.23 39.28 40.20 40.29 40.54 38.79
53.56 54.31 54.80 54.14 55.24 55.25 56.48 56.75 55.36 54.21 53.08 51.97 52.35 50.02 45.26 41.42 44.32 44.05 45.67 46.34 44.64 45.67 44.28 43.88 44.08 43.22 44.27 47.06 46.56 45.47 44.21 43.95 43.51 42.29 43.39 39.95 39.34 38.21 34.26 36.71 27.41 36.87 40.93 41.49 41.46 41.54 41.12
53.45 53.61 54.34 53.93 54.91 55.13 54.92 56.68 56.41 55.64 53.70 52.05 52.49 50.95 46.00 41.18 44.41 45.32 46.17 45.39 45.46 44.20 43.66 43.68 42.87 45.02 46.88 45.46 41.37 38.82 38.71 39.64 40.10 41.12 41.10 41.53 40.55 35.36 32.60 31.64 36.82 36.30 38.53 38.28 36.43 37.09 41.95
53.36 53.22 53.28 53.64 54.26 55.00 54.49 55.13 55.75 55.79 54.57 52.85 53.00 53.56 49.98 42.80 42.14 47.32 44.60 45.99 42.93 42.14 41.11 41.78 43.93 46.08 45.78 42.93 41.33 34.61 34.98 39.88 36.49 37.37 41.11 41.36 40.34 36.56 33.22 29.95 26.47 36.11 39.50 42.31 40.96 30.11 41.19
53.27 53.17 53.02 53.10 53.86 54.39 54.02 53.76 55.40 55.29 54.89 53.15 52.76 53.74 50.48 44.28 46.70 46.91 43.69 42.68 46.72 44.84 42.19 41.40 41.86 42.05 43.82 40.74 38.10 38.44 38.35 42.29 36.49 36.66 33.89 35.32 34.94 31.77 32.63 30.86 34.92 39.27 40.69 42.17 28.80 33.34 41.46
53.79 53.20 52.95 53.41 53.90 53.95 54.42 53.19 53.49 52.80 54.64 53.14 52.25 54.11 50.94 46.30 47.22 48.59 46.70 43.89 45.01 44.89 42.05 41.88 40.84 41.29 39.79 37.45 39.18 40.69 38.06 40.29 38.53 39.34 37.10 35.18 33.68 31.37 32.48 29.28 26.97 41.44 39.64 34.86 39.70 40.77 42.38
53.57 53.55 53.52 53.76 53.77 53.60 54.18 53.64 53.92 53.32 51.26 53.12 49.37 53.67 53.95 48.29 47.34 47.69 47.63 47.68 46.17 46.17 43.09 43.41 43.35 43.01 43.77 40.76 42.16 44.02 39.47 39.93 39.52 34.59 39.42 33.17 38.29 35.81 36.89 36.09 41.26 41.87 40.99 42.47 43.44 42.35 40.61

GFSGBSN_sfc_wetblb_075.txt.gz
Wetbulb
58.03 58.13 58.33 58.04 57.78 57.42 57.83 58.17 58.74 58.31 58.22 58.10 57.49 58.04 58.63 58.67 59.29 59.36 59.71 59.80 60.00 60.24 60.34 60.12 60.25 60.40 56.88 48.86 49.16 57.30 65.05 62.91 58.86 63.82 54.52 52.73 52.45 52.33 51.10 53.53 55.69 53.96 55.63 58.35 56.32 56.78 56.80
58.08 58.13 58.18 57.68 58.22 57.90 57.63 57.82 59.05 58.30 58.25 57.96 57.82 57.49 58.37 58.52 58.87 59.00 58.93 59.01 59.40 59.67 59.57 59.64 60.03 60.06 53.31 44.47 56.37 57.52 57.33 56.67 56.57 60.26 56.27 53.34 54.07 55.86 54.73 54.81 53.18 55.56 56.27 56.29 55.48 55.41 55.62
59.69 59.35 59.21 58.95 58.45 58.06 59.22 59.00 58.58 57.52 57.81 57.55 57.67 57.48 57.92 58.21 58.72 58.63 58.48 58.43 58.67 58.91 59.13 59.37 59.94 57.63 51.10 47.94 56.42 56.18 56.48 55.21 56.10 57.09 54.77 55.20 55.86 54.46 57.12 53.88 55.64 53.75 50.89 52.00 53.11 54.89 52.83
59.19 59.16 59.17 59.11 59.31 59.27 59.24 58.12 57.26 58.31 56.98 57.48 57.43 57.67 57.66 57.83 58.15 57.19 57.38 57.64 58.60 58.56 58.89 59.46 59.63 55.43 46.55 56.00 56.12 55.78 56.53 55.27 56.38 56.02 56.76 58.84 58.65 55.75 54.89 55.29 53.03 50.14 49.69 44.64 50.94 52.59 51.95
58.97 58.77 58.83 59.02 59.12 59.15 57.66 57.24 57.43 57.58 56.80 56.68 57.39 57.20 57.32 57.50 57.59 57.23 57.54 57.82 58.18 58.79 59.44 59.70 55.52 51.80 46.25 58.94 54.29 56.47 55.86 53.07 53.75 54.43 54.32 58.86 57.02 54.06 56.96 49.67 45.36 46.98 42.04 45.09 46.48 52.80 51.63
58.87 58.57 58.64 58.97 59.11 58.51 57.51 56.85 57.16 57.19 56.58 56.49 57.01 57.36 56.90 57.19 57.34 57.72 58.11 58.01 58.03 57.94 57.48 57.64 55.72 46.78 49.92 50.08 53.52 54.09 54.81 54.63 51.54 52.47 51.23 51.94 51.84 48.71 50.11 45.88 39.70 41.31 42.89 45.97 45.87 51.47 51.47
58.48 58.46 58.56 58.75 58.54 58.08 57.24 56.86 56.64 56.46 56.23 56.12 56.94 57.60 57.34 56.87 57.01 57.36 55.09 51.64 47.70 48.58 51.54 46.73 48.63 47.61 49.99 52.88 54.41 51.77 53.52 51.40 51.27 49.03 44.70 49.61 45.38 43.51 47.86 49.71 50.03 48.26 45.71 45.43 47.72 53.48 51.15
58.72 58.37 58.66 58.56 58.13 57.74 57.01 56.45 56.03 55.91 56.09 56.78 56.14 57.45 57.21 57.23 57.47 57.53 54.12 49.91 50.32 50.47 45.06 51.60 51.44 51.49 53.14 53.86 48.35 50.55 53.22 47.09 46.76 43.89 47.95 45.55 42.85 49.21 52.24 52.38 50.81 49.55 46.70 45.44 46.71 48.53 46.10
58.64 58.28 58.54 58.16 58.25 57.76 56.79 55.70 55.26 55.14 55.66 55.84 55.74 56.95 57.35 57.53 57.35 54.16 51.61 52.28 55.07 54.05 44.74 49.28 52.93 51.26 52.15 53.12 48.65 48.87 50.78 47.99 46.11 44.51 45.47 42.65 47.19 52.24 51.30 50.16 48.88 48.66 45.73 44.81 45.39 46.82 46.85
58.54 58.45 58.21 58.00 57.83 57.99 56.71 55.85 55.13 55.24 55.59 55.86 55.82 56.42 56.48 57.39 53.02 53.24 52.47 56.04 54.43 53.94 39.53 44.86 48.40 50.83 52.15 52.66 48.57 53.08 54.08 50.66 46.85 44.21 45.79 45.58 50.51 50.30 49.34 48.77 50.52 45.06 50.01 49.21 44.66 41.84 37.13
58.48 58.16 58.24 57.81 57.52 58.21 57.28 55.91 55.37 55.18 55.73 56.45 56.57 56.43 56.66 56.77 50.53 49.62 54.50 55.20 53.77 50.99 29.49 46.57 48.27 54.23 52.04 49.82 50.13 49.62 55.14 51.76 45.08 45.71 46.24 45.79 47.58 47.21 47.86 49.65 50.11 46.62 49.49 47.63 45.61 41.26 37.36
58.84 58.56 58.19 57.69 57.45 57.41 57.53 57.17 55.97 55.71 55.94 56.72 56.83 56.68 56.54 53.61 51.78 52.91 54.59 55.09 52.02 41.93 32.20 43.64 48.36 47.54 46.78 48.27 48.81 50.47 50.47 52.73 51.01 47.13 48.41 48.19 51.46 49.25 46.41 48.39 49.67 48.70 45.19 43.68 40.87 37.55 30.60
59.24 58.70 58.18 57.74 57.44 57.07 57.14 57.12 56.65 56.14 55.71 56.37 56.88 57.19 55.68 55.14 50.07 53.98 53.85 48.84 38.75 33.95 46.14 42.14 43.67 47.01 46.31 44.75 46.13 45.64 45.92 44.47 41.33 38.61 39.88 44.67 44.43 47.28 49.82 44.14 46.92 44.82 39.16 31.54 30.36 28.76 28.67
59.66 58.95 58.72 58.16 57.60 57.07 56.59 57.06 56.71 56.64 56.25 56.47 56.74 56.63 55.98 55.11 54.33 53.65 49.59 42.36 31.93 41.04 41.40 46.73 45.58 45.60 42.21 45.33 44.86 44.29 42.27 41.60 45.12 42.82 40.15 36.88 35.12 43.40 48.29 45.29 40.84 41.18 38.37 32.48 28.31 27.77 31.62
60.22 59.61 58.93 58.50 57.73 57.04 56.47 56.75 56.62 56.35 57.11 56.61 55.74 50.93 51.50 53.03 54.90 52.55 44.44 35.84 37.02 39.83 45.82 44.06 43.82 40.46 40.11 44.31 44.18 41.94 40.45 41.31 41.52 43.51 38.42 38.42 36.13 44.12 45.33 46.21 44.68 40.72 36.53 41.25 34.44 34.02 29.52
60.25 60.16 59.49 58.81 58.09 57.19 56.24 56.46 56.51 56.15 57.20 56.07 48.75 48.28 49.76 55.21 54.46 49.07 41.09 39.18 40.58 45.20 46.54 45.72 39.39 41.75 38.92 40.47 41.31 40.83 40.56 43.59 43.85 44.37 43.62 41.04 33.59 41.77 43.70 44.35 43.39 40.74 42.59 34.54 33.37 26.80 25.14
57.06 58.81 60.03 58.75 57.92 56.99 56.33 55.96 56.35 55.64 56.98 55.54 47.32 42.50 49.61 54.42 52.11 44.84 36.84 38.84 44.29 47.09 46.65 43.80 42.62 41.63 41.73 41.28 41.26 40.24 41.10 43.30 43.05 43.37 43.40 40.88 39.26 36.79 40.39 38.42 38.31 37.84 36.93 37.09 36.18 33.90 28.03
55.21 56.11 58.67 59.42 57.91 56.74 56.21 55.63 56.18 55.24 55.28 52.08 44.06 38.57 49.27 51.69 41.42 41.27 38.02 43.91 46.33 46.57 46.79 44.83 44.40 44.20 42.01 41.38 39.92 40.06 42.42 43.70 44.31 43.41 39.80 41.70 37.47 32.57 35.28 38.40 40.57 39.08 38.07 37.44 30.96 30.67 31.50
55.00 55.08 56.06 59.18 57.93 56.74 55.97 55.48 56.03 55.01 53.42 49.73 42.32 41.04 47.68 48.06 35.59 36.85 41.31 43.90 45.63 44.78 44.59 43.76 42.82 45.14 44.54 43.02 40.09 42.52 41.73 44.19 44.29 43.50 40.85 40.16 36.22 29.50 31.16 34.76 36.75 35.10 38.59 39.32 37.07 33.37 30.31
54.79 54.82 55.30 56.22 56.82 56.84 56.08 55.01 55.74 54.87 54.16 49.69 41.38 37.30 40.80 41.97 40.88 38.53 38.94 40.09 41.96 44.83 43.97 43.99 41.94 43.18 41.11 41.59 43.53 41.01 40.21 43.19 43.87 44.58 45.57 42.05 36.15 33.33 30.32 32.55 35.28 32.36 36.43 37.97 34.86 28.06 28.53
54.96 54.76 54.81 55.20 55.78 57.04 56.37 55.17 55.47 54.49 54.22 50.27 40.68 36.96 40.39 35.02 38.02 38.58 39.12 40.67 40.44 41.25 42.56 42.32 40.14 41.40 40.15 37.00 39.45 39.85 40.21 40.26 42.53 45.11 41.37 38.40 33.61 34.36 35.22 36.62 36.73 36.36 37.36 36.82 34.23 33.71 30.28
54.53 54.55 54.73 54.64 55.79 55.05 57.18 55.50 55.14 53.99 54.05 46.73 38.83 39.57 41.06 39.04 40.24 38.36 39.58 38.05 40.09 42.49 41.96 40.51 39.18 41.73 39.47 36.59 37.03 37.11 40.45 38.14 37.33 38.72 36.90 38.11 33.82 34.37 33.36 37.31 36.84 35.75 37.56 37.09 36.48 36.27 34.82
54.58 54.78 55.15 54.64 55.32 55.29 55.12 56.22 54.61 53.73 52.99 45.82 43.50 44.70 41.07 39.00 37.40 37.06 38.30 40.15 41.82 41.55 41.49 41.79 40.06 38.72 39.52 39.94 40.07 39.15 39.99 40.32 40.03 38.12 36.42 35.71 34.10 32.60 29.77 36.68 36.08 32.07 35.99 36.94 37.25 37.60 37.30
54.78 54.65 54.72 54.09 54.95 55.32 54.77 56.58 55.05 54.20 52.65 47.13 45.92 45.43 38.93 36.20 38.31 39.52 42.32 43.25 41.72 41.30 38.94 39.98 39.78 37.77 41.04 43.24 42.74 40.68 39.55 40.58 40.58 38.81 39.87 36.20 35.30 34.12 28.55 32.81 25.06 34.93 38.03 38.87 38.67 40.00 38.91
54.32 54.52 54.56 53.85 54.22 54.96 54.70 54.94 56.73 55.10 53.57 47.85 47.52 44.76 41.20 35.77 39.21 40.70 41.83 41.97 41.94 40.70 39.51 39.88 39.67 40.43 41.24 40.18 36.97 34.47 34.48 35.53 37.10 37.98 37.49 37.85 36.28 31.61 28.50 27.42 33.36 34.30 36.56 35.67 34.27 34.44 39.67
54.53 54.04 53.83 53.95 54.51 54.47 54.79 54.25 55.18 55.81 54.52 49.25 48.15 47.80 47.01 38.98 37.02 42.54 40.35 41.15 38.40 34.81 36.45 38.23 39.94 41.01 41.03 38.97 36.93 30.05 29.80 34.54 33.02 34.84 38.01 38.49 36.61 33.57 29.02 24.54 22.79 33.06 36.79 39.58 37.46 26.76 38.60
54.83 54.36 53.79 53.63 54.09 54.27 54.67 54.12 54.17 54.85 54.75 50.70 48.59 49.10 45.22 41.66 42.43 42.96 38.48 37.92 40.54 37.45 35.14 35.15 36.57 37.55 39.02 35.45 33.26 31.40 33.96 38.24 32.23 32.42 29.42 31.53 30.27 27.40 27.50 23.34 30.47 37.22 37.95 39.53 25.85 28.04 38.39
54.73 54.28 54.11 54.19 54.07 54.03 54.21 54.19 54.22 54.10 54.27 52.12 49.34 50.19 47.88 43.54 43.54 45.72 45.44 39.46 39.97 38.71 35.33 37.00 35.84 36.31 34.21 32.34 33.05 34.62 32.58 35.96 33.63 34.67 32.69 30.78 26.79 26.06 27.63 24.14 24.50 38.35 37.02 31.65 34.58 37.70 39.42
54.60 54.34 54.18 54.26 54.11 53.88 53.89 54.16 53.89 53.46 51.51 53.71 48.46 50.56 50.84 47.00 45.01 45.71 45.03 44.87 44.28 43.37 39.31 38.18 37.27 37.84 38.45 34.17 35.24 38.75 35.39 34.92 34.16 30.09 35.58 29.72 34.76 31.57 31.16 30.72 37.65 38.06 37.18 39.33 40.42 39.16 37.95